Regional Weather Roundup
Issued by NWS

Home | Current Version | Previous Version | Text Only | Print | Product List | Glossary On
Versions: 1 2 3 4 5 6 7 8 9 10 11 12 13 14 15 16 17 18 19 20 21 22 23 24 25 26 27 28 29 30 31 32 33 34 35 36 37 38 39 40 41 42 43 44 45 46 47 48 49 50
000
ASUS45 KCYS 021710
RWRWY

WYOMING REGIONAL WEATHER ROUNDUP
NATIONAL WEATHER SERVICE CHEYENNE WY
1100 AM MDT THU OCT 02 2014

NOTE:  "FAIR" INDICATES FEW OR NO CLOUDS BELOW 12,000 FEET
WITH NO SIGNIFICANT WEATHER AND/OR OBSTRUCTIONS TO VISIBILITY.

WYZ001-021800-
YELLOWSTONE NATIONAL PARK

CITY           SKY/WX    TMP DP  RH WIND       PRES   REMARKS
LK YELLOWSTONE   N/A     36  27  69 SW8G18    30.20S WCI  30
W YELLOWSTONE  NOT AVBL

$$
WYZ002>013-054>058-071-098>099-021800-
NORTHERN WYOMING

CITY           SKY/WX    TMP DP  RH WIND       PRES   REMARKS
JACKSON        SUNNY     45  28  53 S17       30.22S
CODY             N/A    N/A N/A N/A MISG        N/A
GREYBULL       MOSUNNY   53  36  52 S6        30.04F
WORLAND        MOSUNNY   53  32  44 VRB5      30.05S
SHERIDAN       MOSUNNY   54  32  43 CALM      30.02F
BUFFALO        SUNNY     52  31  44 NE6       30.05S
GILLETTE       SUNNY     53  32  44 N9        30.03S
HULETT         FAIR      52  34  50 W10G16    30.03
NEWCASTLE      FAIR      48  36  61 SW3       30.03

$$
WYZ014>020-022>026-101>103-021800-
CENTRAL WYOMING

CITY           SKY/WX    TMP DP  RH WIND       PRES   REMARKS
BIG PINEY      MOSUNNY   43  24  47 VRB5      30.24S
PINEDALE       MOSUNNY   41  28  60 W7        30.24S
DUBOIS         FAIR      45  21  39 NW28G36   30.10S
LANDER         PTSUNNY   50  34  54 CALM      30.10S
RIVERTON       PTSUNNY   47  35  63 SW7       30.11S
CASPER         MOSUNNY   50  32  50 SW24      30.09S
DOUGLAS        NOT AVBL

$$
WYZ021-027>030-104>119-021800-
SOUTHERN WYOMING

CITY           SKY/WX    TMP DP  RH WIND       PRES   REMARKS
EVANSTON       MOSUNNY   43  32  65 SW14G22   30.31R
KEMMERER       CLOUDY    43  32  65 W14       30.29R
FORT BRIDGER   FAIR      46  32  56 W23G29    30.31R
ROCK SPRINGS   MOSUNNY   44  30  57 W16       30.26R
DIXON          PTSUNNY   46  34  63 SW15      30.30S
RAWLINS        MOSUNNY   44  27  51 W29G39    30.19R
SARATOGA       FAIR      45  30  57 SW20G26   30.24S
LARAMIE        SUNNY     45  25  45 W25G33    30.16S
CHEYENNE       SUNNY     51  26  37 W13G28    30.11F
TORRINGTON     SUNNY     56  32  40 W17G23    30.04F
PINE BLUFFS    FAIR      52  30  43 W17       30.10F

$$



USA.gov is the U.S. government's official web portal to all federal, state and local government web resources and services.